Regional Weather Roundup
Issued by NWS Midland/Odessa, TX

Skip options and go directly to product.
Home | Oldest Version | Previous Version | Current Version | All | Graphics & Text | Save Text | Print | Product List | Glossary On

Skip product version selection by date and time.   
361
ASUS44 KMAF 281810
RWRMAF
MIDLAND AREA WEATHER ROUNDUP
NATIONAL WEATHER SERVICE MIDLAND TX
1200 PM CST WED JAN 28 2015

...IN SOUTHWEST TEXAS AND SOUTHEAST NEW MEXICO...

CITY           SKY/WX    TMP DP  RH WIND       PRES   REMARKS
ALPINE         FAIR      72  46  39 SW12      30.29S
ANDREWS        FAIR      68  42  39 W10G17    30.16F
ARTESIA        SUNNY     63  45  51 E5        30.17F
BIG SPRING     FAIR      67  43  41 NW9       30.17R
CARLSBAD       SUNNY     67  43  41 E3        30.15F
DRYDEN           N/A     73  43  33 S12       30.15F
FORT STOCKTON  FAIR      73  46  38 S3        30.18F
GUAD PASS      SUNNY     59  41  51 SW16      30.27F
HOBBS          SUNNY     68  39  34 W13       30.17F
MARFA          FAIR      68  46  45 S7        30.27F
MIDLAND AIRPK  FAIR      72  46  38 W12       30.16S
MIDLAND INTL   FAIR      72  46  39 W15       30.16R
ODESSA         FAIR      69  44  40 W15       30.17R
PECOS          FAIR      68  48  48 SE5       30.15F
PRESIDIO       FAIR      64  47  53 CALM      30.21F
SEMINOLE       FAIR      69  42  38 W6        30.15F
SNYDER         FAIR     N/A N/A N/A SW10      30.12F
WINK           FAIR      72  43  35 SW6       30.13F
$$
...OTHER STATIONS IN TEXAS...

CITY           SKY/WX    TMP DP  RH WIND       PRES   REMARKS
ABILENE        FAIR      72  38  29 SW16      30.09F
AMARILLO       FAIR      63  33  32 NW16      30.06R
AUSTIN         FAIR      77  44  30 S14       30.16F
BROWNSVILLE    FAIR      75  61  61 S16       30.19F
CORPUS CHRISTI FAIR      72  54  53 S8        30.20F
DALLAS FTW     PTSUNNY   71  43  36 S9        30.08F
DEL RIO        FAIR      71  40  32 SW5       30.15F
EL PASO        MOSUNNY   61  41  47 CALM      30.23F
HOUSTON INT    FAIR      75  44  33 VRB3      30.20F
LUBBOCK        PTSUNNY   70  38  31 W22G30    30.10F
SAN ANGELO     FAIR      76  39  26 SW16      30.12F
SAN ANTONIO    FAIR      75  40  28 S10       30.20S
WACO           FAIR      74  46  36 S8        30.14F
WICHITA FALLS  NOT AVBL
$$
...OTHER LOCATIONS IN NEW MEXICO...

CITY           SKY/WX    TMP DP  RH WIND       PRES   REMARKS
ALAMAGORDO     SUNNY     61  41  48 SE3       30.24F
ALBUQUERQUE    MOSUNNY   53  36  52 SW3       30.29R
CANNON AFB     SUNNY     63  35  35 W29G37    30.12S
CLOVIS         SUNNY     64  37  36 W24G31    30.12F
HOLLOMAN AFB   SUNNY     60  43  53 NW8       30.22F
ROSWELL        SUNNY     65  43  44 N5        30.15F
RUIDOSO        SUNNY     54  34  47 NW13G28   30.29R
SANTA FE       SUNNY     53  30  41 N14       30.26S
TRUTH OR CONSE SUNNY     59  37  44 VRB5      30.26F
TUCUMCARI      SUNNY     65  35  33 W8        30.08S
$$

USA.gov is the U.S. government's official web portal to all federal, state and local government web resources and services.